When you browse on this site, cookies collect data to enhance your experience and personalize the content and advertising you see.
Visit our Privacy Policy to learn more. By continuing to use the site, you agree to this use of cookies and data.
  • In Spain
  • List of Countries
  • For 7 days
  • Water Temperature
  • Satellite Maps
  • Weather Map
  • Weather Widgets
  • user-avatar
    Login

    Hourly Weather Gnezdovo

    Today, 25 May, Saturday

    Time Temperature Precipitation Wind Pressure Humidity
    00:00 +14°C° 0 mm 3 mps 740 mmHg 97%
    01:00 +14°C° 0 mm 3 mps 739 mmHg 97%
    02:00 +13°C° 0 mm 3 mps 739 mmHg 98%
    03:00 +14°C° 0 mm 3 mps 739 mmHg 97%
    04:00 +14°C° 0 mm 3 mps 739 mmHg 97%
    05:00 +14°C° 0 mm 3 mps 739 mmHg 96%
    06:00 +14°C° 0.1 mm 3 mps 739 mmHg 95%
    07:00 +16°C° 0.1 mm 3 mps 739 mmHg 94%
    08:00 +16°C° 0.1 mm 3 mps 738 mmHg 93%
    09:00 +17°C° 0.4 mm 3 mps 738 mmHg 92%
    10:00 +17°C° 0.4 mm 3 mps 738 mmHg 90%
    11:00 +18°C° 0.4 mm 3 mps 738 mmHg 89%
    12:00 +19°C° 0.4 mm 3 mps 738 mmHg 86%
    13:00 +19°C° 0.4 mm 3 mps 738 mmHg 84%
    14:00 +20°C° 0.4 mm 3 mps 737 mmHg 81%
    15:00 +20°C° 0.1 mm 3 mps 737 mmHg 79%
    16:00 +21°C° 0.1 mm 2 mps 737 mmHg 77%
    17:00 +21°C° 0.1 mm 2 mps 737 mmHg 75%
    18:00 +19°C° 1.1 mm 2 mps 736 mmHg 80%
    19:00 +18°C° 1.1 mm 2 mps 736 mmHg 85%
    20:00 +16°C° 1.1 mm 3 mps 736 mmHg 90%
    21:00 +14°C° 0 mm 3 mps 736 mmHg 91%
    22:00 +14°C° 0 mm 3 mps 736 mmHg 92%
    23:00 +13°C° 0 mm 3 mps 736 mmHg 93%

    Tomorrow, 26 May, Sunday

    Time Temperature Precipitation Wind Pressure Humidity
    00:00 +12°C° 0 mm 3 mps 737 mmHg 94%
    01:00 +12°C° 0 mm 2 mps 737 mmHg 94%
    02:00 +12°C° 0 mm 2 mps 737 mmHg 95%
    03:00 +12°C° 0 mm 2 mps 737 mmHg 95%
    04:00 +12°C° 0 mm 2 mps 738 mmHg 95%
    05:00 +11°C° 0 mm 3 mps 738 mmHg 95%
    06:00 +12°C° 0 mm 3 mps 738 mmHg 90%
    07:00 +13°C° 0 mm 3 mps 738 mmHg 85%
    08:00 +14°C° 0 mm 4 mps 738 mmHg 80%
    09:00 +15°C° 0 mm 4 mps 738 mmHg 75%
    10:00 +17°C° 0 mm 4 mps 738 mmHg 69%
    11:00 +18°C° 0 mm 4 mps 738 mmHg 64%
    12:00 +18°C° 0 mm 4 mps 738 mmHg 62%
    13:00 +19°C° 0 mm 4 mps 738 mmHg 61%
    14:00 +19°C° 0 mm 4 mps 738 mmHg 59%
    15:00 +19°C° 0 mm 4 mps 738 mmHg 61%
    16:00 +19°C° 0 mm 4 mps 738 mmHg 63%
    17:00 +18°C° 0 mm 4 mps 738 mmHg 64%
    18:00 +17°C° 0 mm 4 mps 738 mmHg 69%
    19:00 +14°C° 0 mm 3 mps 738 mmHg 74%
    20:00 +13°C° 0 mm 3 mps 738 mmHg 78%
    21:00 +12°C° 0 mm 3 mps 738 mmHg 82%
    22:00 +11°C° 0 mm 3 mps 738 mmHg 85%
    23:00 +11°C° 0 mm 3 mps 739 mmHg 89%

    Day after tomorrow, 27 May, Monday

    Time Temperature Precipitation Wind Pressure Humidity
    00:00 +11°C° 0 mm 3 mps 739 mmHg 89%
    01:00 +10°C° 0 mm 3 mps 739 mmHg 89%
    02:00 +10°C° 0 mm 3 mps 739 mmHg 90%
    03:00 +10°C° 0 mm 3 mps 739 mmHg 90%
    04:00 +11°C° 0 mm 3 mps 739 mmHg 90%
    05:00 +11°C° 0 mm 3 mps 739 mmHg 90%
    06:00 +12°C° 0 mm 4 mps 740 mmHg 84%
    07:00 +13°C° 0 mm 5 mps 740 mmHg 79%
    08:00 +15°C° 0 mm 5 mps 740 mmHg 74%
    09:00 +15°C° 0 mm 5 mps 740 mmHg 73%
    10:00 +16°C° 0 mm 6 mps 740 mmHg 72%
    11:00 +16°C° 0 mm 6 mps 741 mmHg 72%
    12:00 +17°C° 0.1 mm 6 mps 741 mmHg 71%
    13:00 +19°C° 0.1 mm 6 mps 741 mmHg 70%
    14:00 +20°C° 0.1 mm 6 mps 741 mmHg 69%
    15:00 +20°C° 0.3 mm 5 mps 741 mmHg 72%
    16:00 +20°C° 0.3 mm 5 mps 741 mmHg 75%
    17:00 +20°C° 0.3 mm 4 mps 741 mmHg 77%
    18:00 +19°C° 0.5 mm 3 mps 741 mmHg 81%
    19:00 +18°C° 0.5 mm 3 mps 741 mmHg 85%
    20:00 +17°C° 0.5 mm 3 mps 741 mmHg 88%
    21:00 +16°C° 0 mm 3 mps 741 mmHg 90%
    22:00 +14°C° 0 mm 3 mps 741 mmHg 91%
    23:00 +14°C° 0 mm 3 mps 741 mmHg 93%

    28 May, Tuesday

    Time Temperature Precipitation Wind Pressure Humidity
    00:00 +14°C° 0 mm 3 mps 741 mmHg 94%
    01:00 +13°C° 0 mm 3 mps 741 mmHg 94%
    02:00 +13°C° 0 mm 3 mps 741 mmHg 94%
    03:00 +14°C° 0 mm 3 mps 741 mmHg 95%
    04:00 +14°C° 0 mm 3 mps 741 mmHg 95%
    05:00 +14°C° 0 mm 3 mps 741 mmHg 95%
    06:00 +17°C° 0 mm 3 mps 742 mmHg 91%
    07:00 +19°C° 0 mm 4 mps 742 mmHg 87%
    08:00 +20°C° 0 mm 4 mps 742 mmHg 83%
    09:00 +22°C° 0.6 mm 4 mps 742 mmHg 78%
    10:00 +23°C° 0.6 mm 5 mps 742 mmHg 73%
    11:00 +25°C° 0.6 mm 5 mps 742 mmHg 68%
    12:00 +25°C° 0.5 mm 5 mps 742 mmHg 70%
    13:00 +25°C° 0.5 mm 5 mps 742 mmHg 73%
    14:00 +25°C° 0.5 mm 5 mps 742 mmHg 75%
    15:00 +23°C° 1.2 mm 4 mps 741 mmHg 80%
    16:00 +22°C° 1.2 mm 4 mps 741 mmHg 84%
    17:00 +21°C° 1.2 mm 4 mps 741 mmHg 89%
    18:00 +20°C° 0.6 mm 4 mps 741 mmHg 89%
    19:00 +20°C° 0.6 mm 4 mps 741 mmHg 89%
    20:00 +20°C° 0.6 mm 4 mps 741 mmHg 89%
    21:00 +19°C° 0 mm 4 mps 741 mmHg 90%
    22:00 +18°C° 0 mm 4 mps 741 mmHg 90%
    23:00 +17°C° 0 mm 4 mps 741 mmHg 91%

    29 May, Wednesday

    Time Temperature Precipitation Wind Pressure Humidity
    00:00 +17°C° 0 mm 4 mps 741 mmHg 91%
    01:00 +17°C° 0 mm 4 mps 741 mmHg 92%
    02:00 +17°C° 0 mm 4 mps 741 mmHg 92%
    03:00 +17°C° 0 mm 4 mps 741 mmHg 93%
    04:00 +17°C° 0 mm 4 mps 741 mmHg 93%
    05:00 +17°C° 0 mm 5 mps 740 mmHg 94%
    06:00 +19°C° 0 mm 5 mps 740 mmHg 87%
    07:00 +20°C° 0 mm 6 mps 740 mmHg 81%
    08:00 +21°C° 0 mm 7 mps 740 mmHg 74%
    09:00 +22°C° 0 mm 7 mps 740 mmHg 72%
    10:00 +23°C° 0 mm 6 mps 740 mmHg 70%
    11:00 +23°C° 0 mm 6 mps 740 mmHg 68%
    12:00 +24°C° 0 mm 6 mps 740 mmHg 69%
    13:00 +24°C° 0 mm 6 mps 741 mmHg 69%
    14:00 +26°C° 0 mm 6 mps 741 mmHg 69%
    15:00 +24°C° 1.3 mm 6 mps 741 mmHg 73%
    16:00 +24°C° 1.3 mm 6 mps 741 mmHg 77%
    17:00 +23°C° 1.3 mm 5 mps 741 mmHg 82%
    18:00 +22°C° 2.1 mm 4 mps 741 mmHg 84%
    19:00 +21°C° 2.1 mm 3 mps 741 mmHg 87%
    20:00 +19°C° 2.1 mm 2 mps 742 mmHg 90%
    21:00 +19°C° 0.6 mm 2 mps 742 mmHg 92%
    22:00 +18°C° 0.6 mm 2 mps 742 mmHg 94%
    23:00 +18°C° 0.6 mm 2 mps 742 mmHg 96%

    30 May, Thursday

    Time Temperature Precipitation Wind Pressure Humidity
    00:00 +17°C° 1.8 mm 2 mps 743 mmHg 96%
    01:00 +16°C° 1.8 mm 3 mps 743 mmHg 96%
    02:00 +15°C° 1.8 mm 4 mps 743 mmHg 96%
    03:00 +14°C° 0.2 mm 4 mps 744 mmHg 96%
    04:00 +13°C° 0.2 mm 4 mps 745 mmHg 96%
    05:00 +13°C° 0.2 mm 4 mps 745 mmHg 96%
    06:00 +13°C° 0 mm 4 mps 746 mmHg 91%
    07:00 +14°C° 0 mm 4 mps 746 mmHg 87%
    08:00 +14°C° 0 mm 4 mps 747 mmHg 82%
    09:00 +15°C° 0 mm 4 mps 747 mmHg 74%
    10:00 +17°C° 0 mm 4 mps 747 mmHg 66%
    11:00 +18°C° 0 mm 4 mps 748 mmHg 58%
    12:00 +19°C° 0 mm 4 mps 748 mmHg 55%
    13:00 +19°C° 0 mm 4 mps 748 mmHg 52%
    14:00 +19°C° 0 mm 3 mps 748 mmHg 49%
    15:00 +19°C° 0 mm 3 mps 748 mmHg 51%
    16:00 +19°C° 0 mm 3 mps 747 mmHg 53%
    17:00 +19°C° 0 mm 3 mps 747 mmHg 55%
    18:00 +17°C° 0 mm 2 mps 747 mmHg 60%
    19:00 +15°C° 0 mm 2 mps 747 mmHg 64%
    20:00 +14°C° 0 mm 2 mps 747 mmHg 69%
    21:00 +13°C° 0 mm 2 mps 747 mmHg 68%
    22:00 +12°C° 0 mm 2 mps 747 mmHg 67%
    23:00 +10°C° 0 mm 2 mps 748 mmHg 66%
    Show more